| time (UTC) | temp F | wind direction | speed knots | gust knots | rain 1hr in | rain 24hr in | rain mn in | humidity % | barometer mb |
| 20260504231502 | 54 | 31 | 10.4 | 21.7 | 0.00 | 0.00 | 0.00 | 22 | 1012.3 |
| 20260504230002 | 54 | 27 | 12.2 | 24.3 | 0.00 | 0.00 | 0.00 | 22 | 1012.0 |
| 20260504224612 | 54 | 5 | 6.1 | 19.1 | 0.00 | 0.00 | 0.00 | 24 | 1011.8 |
| 20260504223134 | 53 | 5 | 16.5 | 26.9 | 0.00 | 0.00 | 0.00 | 24 | 1011.9 |
| 20260504221558 | 54 | 21 | 8.7 | 23.5 | 0.00 | 0.00 | 0.00 | 24 | 1011.5 |
| 20260504220058 | 54 | 26 | 11.3 | 26.9 | 0.00 | 0.00 | 0.00 | 27 | 1011.5 |
| 20260504214556 | 54 | 45 | 12.2 | 23.5 | 0.00 | 0.00 | 0.00 | 28 | 1011.4 |
| 20260504213104 | 55 | 19 | 5.2 | 20.0 | 0.00 | 0.00 | 0.00 | 29 | 1011.5 |
| 20260504211554 | 55 | 324 | 5.2 | 15.6 | 0.00 | 0.00 | 0.00 | 30 | 1011.7 |
| 20260504210058 | 55 | 360 | 7.8 | 22.6 | 0.00 | 0.00 | 0.00 | 30 | 1011.7 |
| 20260504204554 | 53 | 354 | 4.3 | 20.9 | 0.00 | 0.00 | 0.00 | 34 | 1012.0 |
| 20260504203106 | 51 | 20 | 9.6 | 23.5 | 0.00 | 0.00 | 0.00 | 35 | 1012.0 |
| 20260504201555 | 53 | 10 | 10.4 | 23.5 | 0.00 | 0.00 | 0.00 | 33 | 1011.8 |
| 20260504200049 | 53 | 29 | 5.2 | 20.0 | 0.00 | 0.00 | 0.00 | 34 | 1011.7 |
| 20260504194546 | 54 | 341 | 6.1 | 19.1 | 0.00 | 0.00 | 0.00 | 34 | 1011.6 |
| 20260504193046 | 53 | 5 | 7.0 | 18.2 | 0.00 | 0.00 | 0.00 | 35 | 1011.6 |
| 20260504191548 | 53 | 18 | 7.8 | 21.7 | 0.00 | 0.00 | 0.00 | 34 | 1011.5 |
| 20260504190044 | 53 | 360 | 5.2 | 20.0 | 0.00 | 0.00 | 0.00 | 38 | 1011.5 |
| 20260504184537 | 52 | 327 | 7.0 | 21.7 | 0.00 | 0.00 | 0.00 | 39 | 1011.5 |
| 20260504183037 | 52 | 360 | 5.2 | 15.6 | 0.00 | 0.00 | 0.00 | 39 | 1011.6 |
| 20260504181543 | 51 | 31 | 7.0 | 20.0 | 0.00 | 0.00 | 0.00 | 41 | 1011.5 |
| 20260504180035 | 51 | 20 | 9.6 | 18.2 | 0.00 | 0.00 | 0.00 | 39 | 1011.6 |
| 20260504174533 | 52 | 14 | 4.3 | 20.0 | 0.00 | 0.00 | 0.00 | 40 | 1011.5 |
| 20260504173032 | 51 | 356 | 5.2 | 17.4 | 0.00 | 0.00 | 0.00 | 39 | 1011.3 |
| 20260504171530 | 51 | 25 | 8.7 | 18.2 | 0.00 | 0.00 | 0.00 | 40 | 1011.2 |
| 20260504081525 | 44 | 28 | 6.1 | 19.1 | 0.00 | 0.00 | 0.00 | 66 | 1009.6 |
| 20260504044601 | 53 | 24 | 5.2 | 13.0 | 0.00 | 0.00 | 0.00 | 40 | 1006.0 |
| 20260504043056 | 54 | 21 | 6.1 | 13.9 | 0.00 | 0.00 | 0.00 | 42 | 1005.7 |
| 20260504041554 | 55 | 27 | 5.2 | 13.0 | 0.00 | 0.00 | 0.00 | 43 | 1005.0 |
| 20260504040104 | 54 | 25 | 1.7 | 8.7 | 0.00 | 0.00 | 0.00 | 43 | 1004.4 |
| 20260504034611 | 54 | 17 | 0.0 | 2.6 | 0.00 | 0.00 | 0.00 | 42 | 1003.7 |
| 20260504033050 | 54 | 18 | 0.0 | 2.6 | 0.00 | 0.00 | 0.00 | 42 | 1003.2 |
| 20260504031550 | 55 | 18 | 0.0 | 1.7 | 0.00 | 0.00 | 0.00 | 42 | 1003.1 |
| 20260504030113 | 56 | 18 | 0.0 | 4.3 | 0.00 | 0.00 | 0.00 | 40 | 1003.0 |
| 20260504024555 | 57 | 17 | 2.6 | 5.2 | 0.00 | 0.00 | 0.00 | 38 | 1002.8 |
| 20260504023049 | 59 | 35 | 2.6 | 6.1 | 0.00 | 0.00 | 0.00 | 36 | 1002.7 |
| 20260504021551 | 61 | 41 | 3.5 | 9.6 | 0.00 | 0.00 | 0.00 | 34 | 1002.5 |
| 20260504020047 | 64 | 41 | 4.3 | 8.7 | 0.00 | 0.00 | 0.00 | 31 | 1002.4 |
| 20260504014550 | 65 | 38 | 2.6 | 11.3 | 0.00 | 0.00 | 0.00 | 29 | 1002.3 |
| 20260504013052 | 67 | 22 | 6.1 | 14.8 | 0.00 | 0.00 | 0.00 | 24 | 1002.2 |
| 20260504011546 | 70 | 28 | 7.0 | 11.3 | 0.00 | 0.00 | 0.00 | 24 | 1002.2 |
| 20260504010044 | 71 | 24 | 0.9 | 8.7 | 0.00 | 0.00 | 0.00 | 21 | 1002.1 |
| 20260504004544 | 72 | 350 | 1.7 | 8.7 | 0.00 | 0.00 | 0.00 | 21 | 1002.3 |
| 20260504003043 | 71 | 355 | 1.7 | 9.6 | 0.00 | 0.00 | 0.00 | 20 | 1002.4 |
| 20260504001557 | 72 | 360 | 2.6 | 10.4 | 0.00 | 0.00 | 0.00 | 19 | 1002.6 |
| 20260504000039 | 72 | 20 | 4.3 | 11.3 | 0.00 | 0.00 | 0.00 | 19 | 1002.8 |
| 20260503234538 | 72 | 360 | 5.2 | 11.3 | 0.00 | 0.00 | 0.00 | 20 | 1002.9 |
| 20260503233039 | 72 | 360 | 2.6 | 13.0 | 0.00 | 0.00 | 0.00 | 21 | 1002.9 |